Weather in Kakhun

Russia / The Kabardino-Balkar Republic     43°32′19″N   43°52′42″E
temp.,
°C
wind,
m/s
gust,
m/s
humid.,
%
clouds,
%
prec.,
mm/h
press.,
hPa
HPBL,
m
23 october, sat
sat2300:00+11wsw11640 0.0 102010
03:00+10w11680 0.0 102110
06:00+9sw11700 0.0 102110
09:00+14ese00560 0.0 1021166
12:00+18ne11430 0.0 1020559
15:00+19ene11380 0.0 1019810
18:00+14e11510 0.0 101910
21:00+12wsw11600 0.0 101910
24 october, sun
sun2400:00+11wsw11680 0.0 101910
03:00+11sw11725 0.0 102010
06:00+10w117227 0.0 102010
09:00+14n115740 0.0 1020224
12:00+16nne2248100 0.0 1019687
15:00+17ne224781 0.0 1017873
18:00+13e1159100 0.0 101610
21:00+12s1162100 0.0 101510
25 october, mon
mon2500:00+11wsw1165100 0.0 101410
03:00+10wnw3670100 0.0 1017122
06:00+9nw91475100 0.0 1021799
09:00+6nnw5885100 1.3 1026883
12:00+4wnw2594100 3.9 1028664
15:00+5wnw3693100 4.8 1029688
18:00+6wsw2487100 0.6 1030668
21:00+5sw4488100 1.1 1031340
26 october, tue
tue2600:00+5ssw4591100 0.0 1032200
03:00+5sw238714 0.0 1032101
06:00+3s22885 0.0 103216
09:00+6ese00747 0.0 1033384
12:00+9e2261100 0.0 10311250
15:00+8ene2261100 0.0 1030814
18:00+7ene2369100 0.0 1031104
21:00+7e236678 0.0 103174
27 october, wed
wed2700:00+5ese11785 0.0 103119
03:00+4s11835 0.0 103012
06:00+3sse11854 0.0 103010
09:00+6ese22690 0.0 1029350
12:00+10e33550 0.0 1027812
15:00+11e34513 0.0 10251002
18:00+8e22670 0.0 102513
21:00+6wsw01770 0.0 102410